Location: Bernay
(48.6766°N, 2.9386°E)
Time: 02:22:20
(UTC+00:00)

Meteor 2-13 Rocket - Pass Details

Date: 12 January 2026
Orbit: 935 x 958 km, 82.5° (Epoch: 6 February)

Event Time Altitude Azimuth Distance (km) Brightness Sun altitude
Rises 18:20:35 0° 183° (S) 3,622 7.7 -19.9°
Reaches altitude 10° 18:23:04 10° 182° (S) 2,682 6.9 -20.3°
Maximum altitude 18:29:12 80° 97° (E) 979 4.3 -21.3°
Drops below altitude 10° 18:35:23 10° 12° (NNE) 2,699 6.6 -22.3°
Sets 18:37:54 0° 11° (NNE) 3,648 7.3 -22.7°
